カタログに戻る

ARIANE 2 DEB

運用中GTO
NORAD 42485·DEBRIS·🇫🇷 France

打ち上げ Jan 27, 1989 から Guiana Space Centre

Loading…

TLE

経年Source: Space-Track

元期: Sep 14, 2026, 05:45 UTC

1 42485U 89006CM  26257.23965538 -.00000108  00000-0  00000-0 0  9999
2 42485   9.0788  23.1988 6728774 213.0797  54.4795  2.17739633100509

AllMySatでARIANE 2 DEBをリアルタイム追跡

Download on the App Store